Simultaneous Nadir Overpasses (SNOs) Predictions

Prediction of SNOs between GOES-16 and AQUA Satellite Orbit:

Table of predicted SNOs for the next 14.0 days since TLE Epoch: 5/20/2023
Index Date Time (GOES-16) GOES-16 Lat,Lon AQUA Lat,Lon Distance(km) Time Diff (sec)
1 05/21/2023 18:41:20 0.02, -75.20 0.51, -72.94 257.38 80
2 05/22/2023 07:02:07 -0.03, -75.20 0.58, -77.97 315.02 80
3 05/24/2023 06:45:26 -0.03, -75.22 -0.14, -74.55 75.06 80
4 05/26/2023 06:34:05 -0.03, -75.23 -0.90, -71.13 466.00 80
5 05/26/2023 18:52:21 0.03, -75.24 -0.15, -76.21 109.92 80
6 05/28/2023 18:40:59 0.03, -75.27 0.59, -72.79 282.39 80
7 05/29/2023 06:59:06 -0.04, -75.27 0.48, -77.82 289.18 80
8 05/31/2023 06:47:43 -0.04, -75.31 -0.23, -74.39 103.98 80
9 05/31/2023 19:05:57 0.04, -75.31 -0.86, -79.46 471.50 80
10 06/02/2023 06:33:40 -0.04, -75.34 -0.97, -70.97 497.49 80
11 06/02/2023 18:51:54 0.05, -75.35 -0.11, -76.03 77.91 80
